Theta_e
304 306 309 308 306 306 304 301 300 299 299 299 299 300 300 301 302 303 303 304 305 305 305 304 305 310 313 315 315 313 311 310 313 313 314 315 315 316 317 317 318 319 317 316 315 314 313
305 305 307 306 306 303 302 300 299 299 299 299 299 299 300 301 301 303 304 304 305 305 306 307 307 309 313 313 312 312 311 313 313 313 314 314 315 315 316 316 317 317 317 316 315 314 312
307 304 305 303 301 300 300 300 299 299 299 298 298 299 300 301 301 303 303 305 305 307 308 309 308 309 314 314 312 312 312 312 313 313 313 313 313 315 315 316 316 316 315 315 315 314 314
308 305 304 303 300 299 298 298 299 299 298 298 298 299 299 300 302 303 304 305 306 309 309 310 308 311 314 311 312 311 312 312 312 313 313 313 313 314 315 313 313 313 313 314 316 315 314
309 307 304 303 302 299 298 297 298 298 298 298 298 298 299 300 302 303 304 306 306 308 308 308 312 313 314 309 311 311 311 312 312 313 312 311 312 314 313 313 312 312 313 314 317 315 315
310 309 306 304 303 300 298 297 297 298 298 298 298 298 299 301 303 303 305 307 307 308 308 307 308 314 311 311 311 310 311 312 311 313 314 313 312 313 312 312 314 314 312 312 313 316 316
311 310 307 304 303 302 298 297 297 297 297 297 297 298 299 301 304 303 304 308 310 313 311 310 310 310 310 310 310 311 310 312 312 312 313 313 314 313 313 312 310 310 311 312 313 313 316
312 311 309 307 304 303 301 297 297 297 297 297 297 298 299 301 304 304 308 310 310 311 312 310 309 310 309 309 311 311 311 313 313 313 312 313 313 312 312 312 312 313 313 314 315 311 311
312 310 310 309 308 304 303 299 297 296 297 297 297 297 299 301 303 307 309 309 307 308 312 311 310 310 310 310 311 311 310 311 313 314 313 314 314 312 312 313 313 313 313 313 312 310 309
313 313 311 310 309 307 304 302 297 296 296 296 296 297 299 301 307 304 308 306 306 307 313 311 312 310 309 311 313 309 306 311 312 312 311 312 310 312 312 313 312 312 308 308 308 309 310
312 313 312 311 310 309 306 303 299 296 296 296 296 297 299 301 304 306 305 306 307 307 332 312 312 308 308 311 311 311 305 309 310 311 310 312 309 310 311 310 309 310 309 309 309 310 310
312 311 312 312 311 309 307 304 302 296 295 296 296 297 299 301 304 303 305 306 310 320 336 312 310 310 308 308 308 307 308 306 307 308 308 309 307 309 310 308 308 308 308 309 309 309 311
315 314 312 313 312 310 308 305 304 297 295 295 295 297 300 300 306 303 305 309 318 323 307 311 311 309 309 309 308 307 308 308 310 316 312 307 307 308 308 309 308 309 309 314 314 315 314
317 316 314 312 313 311 309 306 304 299 295 294 295 299 300 301 303 303 305 311 318 313 309 308 309 309 310 307 307 307 308 309 305 306 308 312 315 307 305 309 309 309 309 312 311 313 312
321 319 316 314 313 312 310 308 305 302 295 294 295 302 303 300 302 302 309 313 317 312 309 310 309 310 309 307 306 306 307 308 306 305 308 309 308 303 302 302 304 309 309 307 308 307 310
321 320 319 317 314 313 311 310 306 304 295 294 301 303 304 300 302 305 309 311 309 308 308 308 309 308 309 307 307 307 308 304 305 302 302 305 306 302 301 300 301 304 304 306 306 309 313
321 320 320 318 317 315 313 311 308 305 295 294 302 304 301 301 300 307 311 311 306 306 307 308 309 308 307 307 307 307 306 303 301 301 301 302 302 302 300 302 304 303 304 303 302 305 312
320 320 320 320 318 316 315 314 310 306 294 294 303 306 300 301 307 306 310 304 303 305 305 308 307 306 306 306 306 306 306 303 299 301 302 301 303 304 303 296 295 297 300 301 304 307 306
317 315 312 319 318 317 315 315 312 308 294 297 304 304 300 302 312 310 304 305 305 305 306 306 307 306 305 306 306 306 305 298 298 300 301 301 302 304 304 297 295 297 298 298 299 298 304
314 313 314 319 319 318 317 315 314 310 299 296 301 308 303 303 301 305 306 306 305 301 303 303 304 303 304 305 304 305 304 298 296 298 296 298 301 303 304 305 299 300 297 295 297 300 301
306 310 310 308 314 318 317 315 314 310 296 296 301 304 304 308 305 304 304 303 304 303 301 301 302 303 304 305 304 304 303 299 296 297 297 298 301 302 302 301 298 296 297 298 295 296 297
300 302 309 311 311 316 317 315 314 312 297 297 301 303 299 303 301 303 302 303 303 301 301 302 302 302 303 303 303 301 302 301 301 297 298 296 302 298 297 298 295 294 294 295 294 294 293
301 301 300 305 311 311 314 316 313 311 302 295 295 295 300 301 302 303 304 303 302 301 298 297 300 300 300 300 296 296 296 296 298 298 298 297 298 296 299 293 292 293 293 293 293 291 291
302 302 301 300 301 310 314 315 313 311 303 295 295 296 304 306 301 304 300 300 300 300 299 295 295 297 294 292 293 293 293 293 294 293 295 296 295 294 296 293 294 291 288 288 291 290 287
304 303 302 301 300 304 312 313 311 310 307 296 296 296 301 306 299 298 297 298 297 296 295 294 293 293 292 293 294 294 293 292 292 291 292 292 294 294 294 294 294 289 288 289 289 290 285
305 303 303 301 300 303 311 312 308 307 300 296 297 293 295 298 295 294 298 297 297 297 294 293 291 292 292 293 294 300 303 297 293 292 290 291 292 293 292 293 292 290 286 285 285 290 283
304 303 302 301 300 302 310 309 304 302 301 297 297 296 294 296 290 291 294 294 295 296 297 293 291 291 291 293 295 301 301 292 295 293 292 291 292 293 293 293 293 287 285 284 290 288 283
302 301 302 304 303 302 308 305 303 301 299 297 293 293 295 292 287 288 289 291 292 295 295 292 292 290 291 294 296 295 293 292 291 292 292 292 292 293 292 293 292 286 284 287 285 283 283
301 304 305 305 305 304 306 304 303 301 299 296 291 290 292 289 286 286 285 286 286 288 292 291 292 291 293 295 293 293 292 291 291 292 289 291 291 293 292 291 286 286 285 282 283 283 282
Wind_Speed
4 5 5 6 6 6 7 7 6 6 7 7 8 9 10 11 11 11 11 9 7 6 5 2 1 3 1 3 4 8 9 9 6 5 5 4 2 1 1 3 3 7 7 7 7 10 10
3 4 5 6 6 6 7 6 6 6 7 7 8 9 10 11 11 11 10 8 5 5 4 3 2 2 3 2 4 8 7 8 8 5 5 5 3 2 4 3 3 4 8 9 7 7 10
4 4 5 7 8 8 7 6 5 6 7 8 9 10 11 12 12 11 9 6 3 4 4 3 3 3 7 5 4 7 6 6 7 6 2 5 4 3 1 5 4 6 6 6 7 9 4
5 5 5 7 8 9 9 7 6 6 7 8 9 10 11 12 12 10 8 3 2 2 3 3 3 1 4 1 3 7 5 3 5 5 5 3 3 4 2 5 4 5 3 6 8 10 4
7 5 5 5 6 7 8 8 6 7 7 8 9 10 11 11 10 10 5 1 1 3 4 3 2 3 4 2 2 6 6 3 3 3 3 1 1 2 4 5 6 6 6 10 6 11 7
8 7 6 5 5 6 7 8 6 6 7 7 8 9 10 11 9 9 2 1 3 3 3 2 2 3 2 3 4 6 4 3 2 1 2 3 3 4 5 6 4 4 7 5 8 10 11
12 9 7 6 6 7 7 7 5 5 6 7 8 9 9 10 7 7 1 1 4 3 11 6 4 2 2 3 3 4 4 2 2 4 3 1 5 6 3 3 5 6 7 9 2 4 8
12 11 9 7 6 7 8 8 7 5 6 7 8 8 9 9 3 6 4 1 3 2 6 4 3 3 2 2 1 6 8 3 2 2 3 4 5 3 1 1 4 6 8 9 2 3 5
15 10 10 9 8 7 7 8 9 8 6 7 8 9 9 8 1 6 7 4 3 2 0 3 2 2 2 4 3 5 8 3 2 2 2 5 6 3 2 2 4 6 8 8 7 2 8
18 15 13 10 10 9 8 8 8 8 7 8 8 9 9 4 2 1 3 2 2 1 4 3 2 2 2 0 1 3 5 3 1 3 3 4 4 1 3 5 4 8 5 3 6 5 6
19 17 15 13 11 10 9 9 8 7 5 6 8 8 7 5 1 1 1 1 1 1 1 3 2 2 1 2 2 2 1 2 2 1 2 1 1 2 5 3 2 2 1 3 6 10 10
20 20 18 15 13 11 9 8 8 8 6 5 5 6 4 2 3 3 2 1 1 3 5 4 2 2 2 2 1 1 1 2 1 2 3 1 1 2 2 1 2 2 4 8 5 7 7
22 21 20 17 15 12 10 8 7 7 7 6 6 4 2 1 2 2 3 2 2 3 1 4 2 2 2 2 2 1 1 4 3 1 5 4 4 2 2 4 3 4 5 3 5 4 6
26 23 21 20 17 15 11 9 7 7 6 5 3 3 3 2 1 1 2 3 4 2 2 2 2 2 3 2 2 2 2 4 3 3 3 4 4 5 3 2 3 7 5 5 7 8 13
30 26 23 21 19 17 13 10 8 6 5 4 3 1 1 2 1 1 3 3 2 1 3 5 3 4 4 3 2 3 4 2 4 1 4 3 2 3 3 2 2 4 6 4 6 13 12
32 32 27 24 22 19 16 12 9 8 5 3 2 2 3 2 1 2 3 3 2 2 3 1 4 3 4 5 4 3 5 2 2 2 3 4 5 2 2 2 2 4 4 4 3 6 10
22 29 26 26 24 23 19 14 11 9 6 3 2 3 2 2 3 3 4 2 3 2 1 3 2 3 4 2 5 3 2 3 1 3 0 2 1 4 1 6 3 4 4 4 3 4 5
5 17 21 19 23 23 21 17 14 10 6 4 2 3 1 3 3 2 4 1 2 3 2 2 2 3 3 2 4 4 3 2 2 4 4 3 2 6 5 3 2 2 3 4 6 10 11
11 7 15 21 21 22 23 18 16 13 8 2 2 0 1 1 4 5 2 3 2 4 4 4 4 3 2 4 4 5 5 3 3 4 2 3 5 4 5 2 2 4 5 8 4 2 16
12 11 13 12 18 22 23 20 15 12 11 5 2 3 2 3 1 4 3 3 4 0 3 2 2 3 4 5 6 2 6 3 2 3 1 1 3 9 12 14 2 7 8 9 10 7 16
10 11 15 19 16 19 24 21 15 15 12 7 3 2 2 4 6 7 4 3 4 4 2 4 3 10 6 4 4 5 5 4 3 4 3 3 6 9 12 13 10 12 14 14 17 19 14
7 10 11 16 20 20 19 22 21 20 18 5 2 3 2 2 4 8 4 6 8 3 6 5 6 3 9 6 4 1 5 5 4 7 6 3 3 2 6 12 8 12 15 17 18 18 20
4 4 7 11 16 23 23 22 27 24 21 6 3 1 1 4 6 6 5 5 6 8 2 2 3 4 6 3 3 3 4 3 1 3 9 4 3 2 6 2 8 13 10 8 11 1 4
6 4 4 10 15 15 24 26 29 27 29 8 4 3 2 3 6 6 5 5 6 7 2 3 2 3 4 8 9 6 5 2 2 1 3 4 6 3 4 4 6 4 4 4 4 1 1
9 6 6 10 12 16 22 30 31 26 29 18 7 3 3 3 2 4 8 5 7 5 3 4 2 3 12 5 2 3 3 3 3 0 3 2 6 3 4 6 8 4 2 2 2 4 3
11 8 9 12 12 14 19 32 31 24 29 23 13 7 2 3 4 3 6 8 5 6 5 3 5 5 3 3 3 4 5 1 4 4 1 3 3 5 3 5 5 5 6 4 3 5 6
11 10 12 15 13 11 18 31 25 22 25 25 11 13 5 2 1 2 2 2 3 4 3 5 7 5 1 4 4 4 5 1 4 5 6 4 5 11 9 6 2 7 8 5 2 2 8
11 14 14 15 16 13 19 25 20 24 22 18 10 14 7 3 2 3 3 1 2 3 4 7 5 2 3 5 4 4 4 4 3 1 4 7 7 5 5 6 8 10 7 4 4 3 1
12 10 10 9 13 17 21 18 18 23 19 16 6 11 12 10 3 4 8 7 3 3 1 7 1 3 4 4 1 2 3 2 3 3 2 5 3 1 5 0 4 12 4 4 1 1 1
Wind_Direction
31 21 11 11 16 16 11 8 16 12 14 14 10 9 6 4 2 2 358 359 3 8 10 24 102 160 161 176 53 347 4 7 356 351 13 348 310 308 196 97 89 103 115 94 90 100 93
360 1 359 3 3 11 8 4 9 4 5 5 6 4 4 3 358 359 355 355 6 17 28 49 88 143 269 216 354 347 8 12 18 13 25 11 29 350 96 68 343 109 131 125 133 114 130
326 339 345 349 356 359 359 357 0 1 1 1 4 4 2 360 355 352 349 350 20 31 39 47 72 82 61 64 7 5 11 15 19 23 41 38 10 314 137 125 118 139 133 145 170 162 133
300 320 337 351 351 353 355 352 353 359 1 3 3 2 1 356 350 349 347 8 51 55 38 39 63 326 70 12 27 16 14 25 31 39 66 32 43 97 9 121 144 189 220 207 154 180 138
278 302 321 337 342 343 351 353 353 356 360 2 1 359 356 351 349 350 343 77 95 75 51 56 26 288 96 37 6 353 10 4 4 43 56 41 17 101 158 206 190 198 253 217 159 196 156
267 280 295 305 322 335 342 350 353 352 352 354 356 356 352 347 347 350 351 123 77 58 15 49 79 171 96 13 341 332 346 354 358 164 178 211 207 208 205 214 241 258 231 218 239 184 208
255 262 281 297 312 325 334 342 345 346 346 349 350 349 347 347 350 352 62 220 207 154 45 51 27 56 59 357 348 354 353 303 235 235 227 156 233 215 209 269 321 294 275 262 160 143 233
246 253 265 279 298 313 326 331 336 336 337 341 344 344 341 340 5 11 40 34 32 49 99 59 71 92 49 335 269 40 353 278 238 215 196 201 237 61 124 206 249 248 255 260 139 166 247
242 253 256 268 284 295 312 326 330 331 328 334 339 340 341 341 351 41 81 89 113 11 223 83 45 28 13 330 34 10 352 325 329 216 231 287 57 118 225 201 254 252 273 293 277 306 243
243 247 253 262 272 287 296 310 323 333 333 335 339 342 347 357 96 96 47 69 105 358 211 117 149 102 186 305 165 19 14 349 214 319 321 318 75 229 247 263 279 281 21 285 271 264 271
243 245 252 255 260 271 286 300 315 323 326 334 338 341 350 28 90 55 128 109 101 279 320 118 118 17 351 290 46 117 6 218 298 354 266 83 213 218 248 288 261 358 343 257 260 260 280
246 247 248 250 254 262 273 287 306 315 315 319 327 339 342 9 63 113 118 108 280 222 249 159 156 167 206 197 160 316 189 140 53 235 233 300 140 251 322 125 246 101 253 235 255 258 256
245 246 246 249 251 255 264 273 291 306 313 320 323 333 359 74 134 140 135 201 243 239 62 157 176 200 276 185 188 305 245 196 255 236 216 175 204 117 260 241 187 232 269 285 224 203 250
242 245 246 246 250 249 255 266 280 298 306 309 305 340 22 62 93 132 205 219 245 27 181 94 130 161 237 178 178 200 217 227 215 242 281 236 233 187 141 259 342 205 271 262 289 286 297
242 239 242 245 246 248 249 257 273 288 294 298 284 305 199 298 320 194 243 225 276 157 111 161 157 221 191 197 268 233 226 319 43 262 256 274 205 123 39 355 316 145 218 13 291 275 279
248 242 237 239 241 244 246 250 261 270 272 272 283 233 207 272 203 211 242 256 183 62 116 185 241 213 243 173 220 213 185 67 116 10 346 31 280 26 79 257 206 273 349 250 214 290 285
246 250 244 239 237 237 239 243 250 262 265 225 239 244 203 180 132 223 221 195 140 105 301 242 277 248 249 232 249 248 5 99 30 125 308 312 258 116 203 202 289 182 221 225 301 266 262
223 246 252 251 245 237 237 237 241 248 245 204 254 239 350 162 200 221 228 130 88 148 167 208 284 281 258 189 224 234 238 76 151 177 186 160 260 259 257 95 12 294 281 265 242 259 246
212 220 281 252 255 246 237 239 232 235 211 191 245 108 17 163 231 213 128 154 183 162 186 178 198 244 231 215 235 214 196 147 184 205 203 164 210 278 180 188 188 234 213 247 283 294 250
219 218 251 243 244 252 242 239 235 228 208 211 239 196 147 193 299 300 198 212 186 186 154 193 164 190 198 225 235 219 196 143 173 195 97 195 257 251 265 295 331 239 216 230 226 244 266
235 240 227 238 251 250 244 237 236 222 205 208 213 225 331 179 209 196 200 129 185 203 225 210 199 228 206 235 232 227 197 158 181 171 188 244 253 257 272 283 278 269 265 249 234 248 261
231 244 240 232 239 242 251 238 233 224 191 241 223 188 187 139 143 166 177 198 209 167 169 208 232 195 211 233 253 241 183 201 198 181 199 190 271 285 268 256 272 269 259 252 255 267 267
223 252 268 248 247 237 244 238 236 218 184 205 244 284 288 154 171 193 194 188 196 141 159 8 232 194 215 244 90 76 50 50 358 189 200 199 245 245 273 26 307 274 271 260 242 95 306
246 247 316 277 251 243 235 241 242 222 196 164 169 160 120 228 202 209 168 165 170 184 153 143 185 200 112 118 109 100 85 84 177 161 299 218 215 256 290 312 254 77 87 64 33 77 125
254 263 280 303 261 254 236 235 239 225 212 187 170 128 171 222 164 167 160 145 126 124 120 149 92 43 146 147 192 203 193 223 179 283 206 261 219 255 257 244 293 168 167 149 170 164 146
248 265 284 287 273 261 234 230 226 220 196 190 175 177 176 142 209 11 151 184 164 174 147 108 85 127 148 206 192 235 244 222 188 165 176 183 261 224 179 263 271 82 130 92 81 258 160
255 267 279 280 260 248 227 220 199 192 207 189 177 185 118 125 51 43 163 177 157 175 128 136 155 152 256 187 209 219 236 346 225 204 173 169 206 219 230 253 254 145 141 139 175 97 161
276 286 279 267 245 221 214 199 193 188 193 177 161 173 152 97 58 21 21 129 117 201 171 132 127 180 166 203 220 204 244 189 215 147 190 182 188 196 213 228 249 150 136 223 92 134 235
294 287 288 250 210 189 194 185 183 184 186 174 131 147 127 78 92 89 93 70 53 2 93 178 42 136 153 182 239 217 210 180 234 227 197 219 249 262 223 197 102 173 64 105 102 341 256